Regional Weather Roundup
Issued by NWS Goodland, KS

Home | Current Version | Previous Version | Graphics & Text | Print | Product List | Glossary On
Versions: 1 2 3 4 5 6 7 8 9 10 11 12 13 14 15 16 17 18 19 20 21 22 23 24 25 26 27 28 29 30 31 32 33 34 35 36 37 38 39 40 41 42 43 44 45 46 47 48 49 50
000
ASUS43 KGLD 212059
RWRGLD

GOODLAND FORECAST AREA HOURLY WEATHER ROUNDUP
NATIONAL WEATHER SERVICE GOODLAND KS
200 PM MST TUE NOV 21 2017

...OFFICIAL OBSERVATIONS...

CITY           SKY/WX    TMP DP  RH WIND       PRES   REMARKS
GOODLAND KS    SUNNY     48  25  40 N16       30.30R
HILL CITY KS   SUNNY     49  22  34 N20       30.32R
IMPERIAL NEB   SUNNY     47  24  40 N15       30.31S
MCCOOK NEB     SUNNY     46  21  37 N16       30.32S
AKRON CO       SUNNY     44  26  49 NW7       30.31S
BURLINGTON CO  SUNNY     47  27  45 N13       30.31R
LIMON CO       MOSUNNY   47  27  45 N12       30.31F
$$

...UNOFFICIAL OBSERVATIONS...

CITY           SKY/WX    TMP DP  RH WIND       PRES   REMARKS
LENORA KS        N/A     46  32  58 N12         N/A
NORTON KS      SUNNY     48  10  21 N16G22    30.31
SHARON SPRINGS   N/A     49  29  46 N14         N/A
YUMA CO        FAIR      43  28  56 NW9       30.31S
$$




USA.gov is the U.S. government's official web portal to all federal, state and local government web resources and services.